NOAA 16 DEB, 42376

Orbit data source: Space-Track

NOAA 16 DEB, 42376 is space debris in SSO originally from a launch on Thu, 21 Sep 2000 UTC launched from the Air Force Western Test Range (AFWTR). Debris objects in space refer to the collection of defunct objects orbiting the Earth. Examples of debris include non-operational satellites, rocket bodies, and fragments generated from explosions, collisions, or faulty payload assembly.

Loading next visibility...
Identifier
42376, 2000-055RU
Orbit
SSO
Country
Flag of USUS
Related business
Manufacturer
Unknown
Mission
Spacecraft
Bus & Motor
Unknown
Mass
Unknown
Launch date (UTC)
2000-09-21 (26 years ago)
Launch vehicle
Unknown
Launch site
Air Force Western Test Range (AFWTR)
Object type
Payload
Rocket body
Debris
Shape & HBR
Unknown shape, 0.1 m
Radar Cross Section
Small (<0.1 m²)

Expand to show TLE details & history
Last TLE update: 2 weeks ago

TLE from 2 weeks ago
0 NOAA 16 DEB
1 42376U 00055RU  26148.66338538  .00007926  00000-0  35964-2 0  9998
2 42376  98.7606  96.6830 0077358 193.9554 165.9485 14.20522330525707
Epoch: 2026-05-28T15:55Z
TLE epoch observation values (Epoch: 2026-05-28T15:55:16.496Z)
Latitude
-0.00007°
Longitude
-28.34061°
Altitude
880.58 km
Speed
7.384 km/s
True Right ascension
06h 26m 43s
True Declination
0° 00' 00"
Sunlit
Object was in daylight at epoch
Visualization orbit readout
Latitude
Unknown
Longitude
Unknown
Altitude
Unknown
Speed
Unknown
Apparent Right ascension
Unknown
Apparent Declination
Unknown
Sunlit
N/A
Visualization observer readout
Local Sidereal Time
19:08:22
Azimuth
Unknown
Elevation
Unknown
Doppler factor
Unknown
Orbital elements
Apogee altitude
876.436 km
Perigee altitude
765.058 km
Semi-major axis
7,198.884 km
Eccentricity
0.00774
Inclination
98.7606°
RAAN
96.683°
Arg. of periapsis
193.9554°
True anomaly
166.16173°
Mean anomaly
165.9485°
Eccentric anomaly
166.05531°
Mean motion
3.55341 °/min
Orbital period
101.31 mins
BSTAR
0.0035964
Loading maneuver chart data...
Computing Atmospheric mass density...
Loading historical data...
Loading historical data...
Loading historical data...
Loading historical data...
Loading historical data...
Loading historical data...
Loading historical data...

Documentation

Showing up to 5 results
|